SCP
0 0 0 0 0 0 0 0 0 0 0 0 0 0 0 0 0 0 0 0 0 0 0 0 0 0 0 0 0 0 0 0 0 0 0 0 0 0 0 0 0 0 0 0 0 0 0 0 0 0 0 0 0 0
0 0 0 0 0 0 0 0 0 0 0 0 0 0 0 0 0 0 0 0 0 0 0 0 0 0 0 0 0 0 0 0 0 0 0 0 0 0 0 0 0 0 0 0 0 0 0 0 0 0 0 0 0 0
0 0 0 0 0 0 0 0 0 0 0 0 0 0 0 0 0 0 0 0 0 0 0 0 0 0 0 0 -0 0 0 0 0 0 0 0 0 0 0 0 0 0 0 0 0 0 0 0 0 0 0 0 0 0
0 0 0 0 0 0 0 0 0 0 0 0 0 0 0 0 0 0 0 0 0 0 0 0 0 0 0 0 0 -0 0 0 0 0 0 0 0 0 0 0 0 0 0 0 0 0 0 0 0 0 0 0 0 0
0 0 0 0 0 0 0 0 0 0 0 0 0 0 0 0 0 0 0 0 0 0 0 0 0 0 0 -0 0 0 -0 -0 0 0 0 0 0 0 0 0 0 0 0 0 0 0 1 0 0 0 0 0 0 0
0 0 0 0 0 0 0 0 0 0 0 0 0 0 0 0 0 0 0 0 0 0 0 0 0 0 0 0 0 0 0 0 0 0 0 0 0 0 0 0 0 0 0 0 0 0 0 0 0 0 0 0 0 0
0 0 0 0 0 0 0 0 0 0 0 0 0 0 0 0 0 0 0 0 0 0 0 0 0 0 0 0 0 0 0 0 0 0 0 0 0 0 0 0 0 0 0 0 0 0 0 0 0 0 0 0 0 0
0 0 0 0 0 0 0 0 0 0 -0 0 0 0 -0 0 -0 0 0 -0 0 0 0 0 0 0 0 0 0 0 0 0 0 0 0 0 0 0 0 0 0 0 0 0 0 0 0 0 0 0 0 0 0 0
0 0 0 0 0 0 0 0 0 -0 -0 0 0 -0 0 0 0 0 -0 0 0 0 0 0 0 0 0 0 0 0 0 0 0 0 0 0 0 0 0 0 0 0 0 0 0 0 0 0 0 0 0 0 0 0
0 0 0 0 0 0 0 0 0 0 0 0 0 0 0 0 -0 -0 0 0 0 0 0 0 0 0 0 0 0 0 0 0 0 -0 -0 0 0 -0 0 0 0 0 0 0 0 0 0 0 0 0 0 0 0 0
0 0 0 0 0 0 0 0 0 0 0 0 0 0 0 0 -0 0 0 0 0 0 -0 0 0 0 0 0 0 -0 -0 0 0 -0 0 0 0 0 0 -0 0 0 0 0 0 0 0 0 -0 0 -0 -0 -0 0
0 0 0 0 0 0 0 0 0 0 0 0 0 0 0 -0 0 0 0 0 0 0 0 0 0 0 0 0 0 0 0 0 0 -0 0 -0 0 0 0 0 0 0 0 0 0 0 0 -0 -0 -0 -0 -0 -0 -0
0 0 0 0 0 0 0 0 0 0 0 0 0 0 0 0 0 0 0 0 0 0 -0 0 0 0 0 0 0 0 0 0 0 0 0 0 0 0 0 0 0 0 0 0 0 0 0 -0 0 -0 -0 -0 -0 -0
0 0 0 0 0 0 0 0 0 -0 0 0 0 0 0 0 0 0 0 0 -0 -0 -0 0 0 0 0 0 0 0 -0 -0 0 0 0 -0 -0 -0 0 0 0 0 0 0 0 0 0 0 0 0 -0 0 0 0
0 0 -0 -0 -0 0 0 0 0 0 0 0 0 0 -0 0 0 -0 0 -0 -0 -0 0 0 0 0 0 0 0 0 0 0 0 0 -0 -0 -0 -0 -0 0 0 0 0 0 0 0 0 0 0 0 0 0 0 0
0 0 0 -0 0 0 0 0 0 0 0 0 0 0 0 0 0 0 0 -0 -0 0 0 0 0 0 0 -0 0 0 0 0 0 -0 -0 0 -0 -0 -0 0 0 0 0 0 0 0 0 0 0 0 0 0 0 0
0 0 0 0 0 0 -0 0 0 0 0 0 0 0 -0 -0 0 0 0 0 -0 0 0 0 0 0 0 0 0 0 0 -0 -0 -0 -0 -0 -0 -0 -0 0 0 0 0 0 0 0 0 0 0 0 0 0 0 0
0 -0 0 0 0 -0 0 0 0 0 0 0 0 0 0 0 0 0 0 0 -0 0 0 0 0 0 0 0 0 0 -0 -0 -0 0 0 -0 0 0 -0 0 0 0 0 0 0 0 0 0 0 0 0 0 0 0
0 -0 0 -0 -0 -0 0 0 0 0 0 0 0 0 0 0 0 0 0 0 0 0 0 0 0 0 -0 -0 0 0 0 0 0 0 -0 0 -0 -0 -0 -0 -0 0 0 0 0 0 0 0 0 0 0 0 0 0
0 0 0 -0 -0 0 0 0 0 0 0 0 0 0 0 0 0 0 -0 0 0 -0 -0 0 0 -0 0 0 -0 -0 0 0 -0 0 0 0 0 0 0 0 0 0 0 0 0 0 0 0 0 0 0 0 0 0
0 0 0 0 -0 0 0 0 -0 0 0 0 0 0 0 0 0 0 0 0 0 0 0 0 0 0 0 0 0 0 -0 -0 0 0 0 0 0 0 -0 0 0 0 0 0 0 0 0 0 0 0 0 0 0 0
0 -0 0 0 0 0 0 0 0 0 0 0 0 0 0 0 0 0 0 0 0 0 0 0 -0 0 0 0 0 0 0 0 0 0 -0 0 0 0 0 0 0 0 0 0 0 0 0 0 0 0 0 0 0 0
0 -0 0 0 0 0 0 0 0 0 0 0 0 0 0 0 -0 -0 -0 -0 0 -0 -0 0 0 0 0 0 0 0 0 0 0 -0 -0 -0 0 0 0 0 0 0 0 0 0 0 0 0 0 0 0 0 0 0
0 0 0 0 0 0 0 0 0 0 0 0 0 0 -0 -0 -0 -0 -0 0 0 0 0 0 0 0 0 0 0 0 0 -0 -0 -0 0 -0 -0 0 0 0 0 0 0 0 0 0 0 0 0 0 0 0 0 0
0 0 0 0 0 0 0 0 0 0 0 0 0 0 0 -0 -0 0 0 0 0 0 0 0 0 0 0 0 0 -0 -0 0 0 0 0 0 0 0 0 0 -0 0 0 0 0 0 0 0 0 0 0 0 0 0
0 0 0 0 0 0 0 0 -0 -0 -0 -0 -0 -0 -0 0 0 0 0 0 0 0 0 0 0 0 0 0 -0 -0 0 -0 -0 0 0 0 0 0 0 -0 -0 -0 0 -0 0 0 0 0 0 0 0 0 0 0
0 0 0 0 0 0 0 0 -0 -0 0 0 0 0 0 0 0 0 0 0 0 0 0 0 0 0 0 0 0 0 0 0 0 0 -0 -0 -0 0 -0 -0 -0 0 -0 -0 0 0 0 0 0 0 0 0 0 0
0 0 0 0 0 0 0 -0 -0 -0 0 0 0 0 0 0 0 0 0 0 0 0 0 0 0 0 0 0 0 -0 -0 0 0 0 0 0 -0 -0 0 -0 -0 -0 -0 -0 -0 0 0 0 0 0 0 0 0 0
0 0 0 0 0 -0 -0 0 0 0 0 0 0 0 0 0 0 0 0 0 0 0 0 0 0 0 -0 -0 0 -0 -0 -0 -0 -0 -0 -0 -0 -0 -0 -0 -0 -0 -0 0 0 0 0 -0 0 0 0 0 0 0
0 0 0 -0 -0 -0 0 0 0 0 0 0 0 0 0 0 0 0 -0 -0 -0 -0 -0 -0 -0 -0 -0 -0 -0 -0 -0 -0 -0 -0 -0 -0 0 0 0 0 0 0 0 0 0 0 0 0 0 0 0 0 0 0
-0 -0 0 0 0 0 0 0 0 0 0 0 0 0 0 0 0 -0 -0 -0 0 0 0 0 0 -0 -0 -0 -0 -0 -0 -0 -0 0 0 -0 -0 0 0 0 0 0 0 0 0 0 0 0 0 0 0 0 0 0
0 0 0 0 0 0 0 0 0 0 0 0 0 0 0 0 0 -0 -0 -0 0 0 0 0 0 0 0 0 0 0 -0 -0 0 -0 -0 -0 0 0 0 0 0 0 0 0 0 0 0 0 0 0 0 0 0 0
0 0 0 0 0 0 0 0 0 0 0 0 0 0 0 0 -0 -0 -0 -0 -0 0 0 0 -0 -0 -0 -0 -0 -0 -0 -0 -0 0 -0 -0 -0 0 0 0 0 0 0 0 0 0 0 0 0 0 0 0 0 0
Wind_Speed_500mb
35 35 35 32 29 28 28 24 25 25 23 23 19 17 15 13 8 15 12 12 16 18 39 44 39 37 29 20 8 10 14 2 4 5 6 4 8 16 11 10 8 13 14 8 7 5 13 30 23 18 9 11 9 18
31 30 31 30 26 25 26 23 24 26 25 21 21 18 13 12 9 13 18 11 19 23 27 29 44 55 42 32 14 9 9 6 7 5 4 6 6 7 17 9 5 9 7 13 13 13 4 57 7 18 19 18 15 22
30 30 29 28 23 25 26 21 25 25 25 21 19 19 15 12 11 17 21 18 22 28 39 24 17 17 14 33 49 30 19 16 8 3 5 5 10 6 8 10 5 4 3 4 9 13 14 44 12 28 21 20 21 20
29 28 27 26 22 24 26 25 24 24 26 26 19 18 17 16 13 19 23 19 20 13 10 13 16 46 38 35 36 54 38 11 1 9 7 4 7 3 3 4 3 4 8 10 4 2 9 27 18 22 24 23 24 20
26 26 25 22 22 23 26 25 25 24 27 29 18 19 18 16 15 20 26 24 22 16 9 32 48 8 14 16 39 36 48 41 16 7 5 5 9 7 5 3 7 9 5 7 8 24 9 22 46 29 26 27 21 16
27 28 27 22 19 24 25 25 26 28 29 17 16 18 15 12 11 13 8 2 16 33 11 8 18 11 19 8 28 36 35 27 14 9 9 9 11 7 7 4 7 9 14 21 11 19 14 22 42 31 29 27 19 21
24 24 26 25 24 24 24 28 24 24 22 15 16 16 10 13 14 17 8 11 9 9 8 11 11 8 6 12 12 17 25 17 17 7 9 7 19 17 7 9 8 14 18 11 4 25 19 28 26 35 28 24 28 26
22 24 24 23 20 21 24 22 21 22 17 14 9 8 9 13 18 23 13 26 21 13 8 6 8 10 4 7 9 16 17 18 17 8 6 6 12 10 9 20 17 32 22 5 23 7 9 25 42 34 29 39 32 30
21 22 24 24 21 22 22 21 25 19 9 7 7 8 10 11 9 3 5 11 13 13 6 6 6 5 14 1 7 12 15 7 13 7 8 8 5 10 16 11 10 38 23 10 29 7 25 34 38 39 41 34 30 31
19 21 24 25 24 22 16 14 12 6 6 5 3 6 6 5 8 7 1 5 14 10 11 8 6 7 9 4 3 3 9 6 7 9 9 7 7 41 56 47 31 21 15 8 8 16 24 33 43 45 39 34 31 31
20 25 28 26 21 16 12 10 9 7 6 4 4 6 8 15 9 8 5 8 9 7 11 10 14 9 6 6 2 8 3 6 4 5 6 5 7 9 21 49 55 43 30 14 13 18 22 34 45 42 41 37 32 29
22 26 25 20 15 12 11 7 7 12 6 6 9 14 10 3 2 3 5 7 8 4 6 5 8 13 8 8 6 6 3 3 5 14 5 5 4 23 36 29 30 45 37 25 17 30 28 40 45 48 44 40 35 31
19 23 21 11 8 10 7 7 13 14 7 7 4 4 4 3 3 7 6 5 4 3 4 14 7 7 6 9 8 4 5 3 1 4 5 5 20 36 30 24 12 39 39 28 26 25 26 36 39 47 48 44 39 37
18 14 12 3 6 5 6 8 14 14 5 4 3 6 6 7 8 5 2 4 3 8 9 17 13 6 6 6 3 6 1 4 5 5 3 8 30 41 22 20 2 22 20 24 29 31 30 29 43 51 54 46 44 42
14 14 9 6 7 10 5 11 11 10 4 3 5 7 10 12 11 12 18 13 11 27 14 13 11 7 4 5 3 2 5 5 5 2 5 33 37 34 18 20 9 24 17 18 25 31 29 29 32 52 57 50 45 44
13 9 2 5 6 6 11 13 11 7 6 5 8 8 11 9 14 9 6 11 22 29 17 8 3 3 3 4 5 8 3 3 8 4 14 31 45 30 21 28 23 10 22 22 22 23 30 31 22 36 50 52 45 42
8 2 6 3 6 10 15 10 6 6 7 6 10 17 24 26 25 23 11 15 18 12 3 3 6 2 4 5 5 3 3 1 10 15 21 28 26 24 27 20 25 34 6 7 17 26 33 38 33 26 34 48 47 39
2 13 1 9 11 15 15 9 6 7 11 14 11 12 12 21 23 25 22 14 4 3 5 3 6 4 4 4 1 3 4 13 13 11 19 16 13 10 22 17 17 18 29 22 12 9 25 37 47 47 39 43 43 41
5 3 2 9 10 4 7 6 8 7 14 15 22 27 25 26 34 35 31 25 21 17 12 6 5 5 5 6 6 9 7 15 25 29 26 23 15 15 12 9 5 4 7 14 9 3 3 4 13 26 37 45 46 43
6 8 7 3 13 4 4 6 8 8 9 8 16 16 15 18 23 22 18 12 11 8 8 7 7 7 9 13 12 23 17 28 30 26 22 18 13 15 16 14 13 10 4 8 12 15 15 17 16 16 23 27 28 30
10 7 9 11 20 10 6 5 9 10 11 11 19 16 13 16 14 12 12 13 15 10 10 21 25 29 26 29 33 36 35 33 31 29 30 25 19 15 13 15 14 10 7 5 7 8 9 17 19 20 19 18 21 25
5 8 5 14 8 6 9 10 10 13 10 13 14 11 13 8 6 5 5 10 10 17 25 28 35 36 36 35 31 28 30 31 30 26 18 16 14 11 12 18 18 13 12 14 15 13 16 14 15 16 17 17 17 19
13 15 5 9 6 6 7 9 7 7 6 6 6 6 6 6 4 4 7 9 11 17 20 23 24 25 27 24 24 25 22 19 18 15 13 16 15 6 7 14 18 17 11 7 10 13 14 13 8 6 5 6 4 2
3 6 9 9 11 6 6 7 9 8 7 7 5 6 4 4 5 7 5 6 11 12 15 16 16 13 11 12 13 15 8 3 4 6 8 12 11 3 2 9 19 15 12 8 5 7 11 8 4 3 7 6 7 5
4 5 5 6 8 7 7 6 8 6 6 6 5 5 3 6 3 6 5 4 4 9 9 8 7 7 4 4 7 15 16 12 11 14 17 15 12 9 9 7 17 19 14 14 16 18 12 7 6 1 5 7 8 10
4 9 13 7 7 7 6 5 4 4 6 6 6 6 6 5 6 6 4 2 3 6 10 9 14 6 8 12 19 23 26 31 34 40 35 32 33 32 29 25 22 22 20 16 15 17 19 19 19 18 18 17 16 14
5 7 11 13 8 7 10 15 14 8 6 6 2 4 5 5 5 5 4 3 7 4 10 10 14 13 12 18 19 32 33 35 34 33 32 32 35 35 33 33 33 29 24 24 22 21 18 16 17 19 20 18 19 19
11 7 9 5 10 14 7 7 5 4 4 9 7 6 2 6 6 4 6 17 16 20 21 21 22 22 29 31 31 32 29 30 31 28 25 25 25 23 26 30 32 33 34 33 32 30 26 23 23 25 26 27 27 25
10 10 9 17 14 12 11 9 7 7 12 8 7 1 3 5 10 16 24 19 26 24 25 34 32 24 28 31 32 26 21 23 29 34 33 32 33 31 19 7 13 13 16 15 18 23 25 24 22 20 19 18 19 19
9 15 7 7 5 6 7 13 20 26 23 16 10 6 6 13 22 37 44 32 25 22 30 36 39 46 50 53 50 46 43 43 41 37 35 35 33 32 30 17 2 3 2 2 2 1 1 1 2 3 3 6 8 11
8 5 9 10 9 23 30 24 18 13 6 9 15 21 24 28 35 33 35 36 37 32 28 33 38 40 42 44 42 43 43 38 36 37 37 34 29 26 27 26 26 24 22 18 13 11 11 10 9 8 9 9 10 11
6 10 6 5 9 3 14 19 6 8 16 26 23 28 29 35 20 15 27 31 27 31 37 37 36 38 37 36 36 33 28 26 25 29 33 35 32 27 21 18 18 19 19 18 16 17 16 16 16 17 17 17 16 18
14 16 15 9 7 2 2 4 5 7 13 15 13 19 20 15 6 8 21 24 21 20 21 23 23 22 21 20 21 21 19 20 24 28 34 38 36 28 22 20 21 21 20 19 20 20 21 20 19 18 18 18 19 21
Wind_Direction_500mb
300 303 307 312 307 317 319 324 325 324 319 317 307 298 292 258 279 289 279 250 250 261 273 266 259 260 263 256 245 317 310 82 273 249 250 246 250 205 198 150 241 172 164 160 113 153 232 159 139 195 184 151 160 170
298 301 307 311 306 310 316 310 311 314 316 314 317 311 294 248 259 275 281 267 273 272 260 261 267 264 248 240 222 245 284 322 287 290 281 289 276 248 211 215 122 255 217 167 195 204 73 177 157 171 160 148 155 174
295 302 309 309 299 310 314 308 307 311 317 313 317 318 290 237 247 270 277 285 286 286 294 277 284 296 217 235 243 236 252 224 220 77 290 286 266 281 193 223 281 206 38 160 156 189 203 187 146 174 154 155 164 178
297 303 308 307 296 301 307 307 303 305 308 306 300 313 301 230 251 267 275 273 272 281 281 296 312 301 282 256 233 219 222 229 189 352 299 275 280 292 237 32 308 270 161 183 222 139 133 199 185 166 163 162 160 164
300 303 304 306 316 304 299 295 300 300 301 311 304 313 299 232 253 280 279 270 247 241 288 295 310 5 346 228 215 218 221 236 268 316 262 253 285 300 253 253 225 196 204 205 197 190 161 190 190 173 161 161 167 177
299 298 299 300 300 302 312 302 289 291 305 301 299 300 285 230 273 290 300 242 230 233 269 300 308 318 338 290 200 206 205 210 214 222 245 263 266 263 264 194 285 320 311 263 287 141 130 147 173 175 172 173 177 167
307 315 313 301 287 294 307 299 292 287 294 291 296 296 248 252 254 244 233 166 55 340 255 289 289 292 337 67 117 162 189 203 197 221 243 233 286 309 266 215 202 320 330 284 185 130 109 153 156 163 176 169 158 156
321 318 319 318 301 301 306 303 298 286 283 293 293 280 266 268 273 277 274 254 265 265 260 281 277 301 342 204 143 162 170 189 194 214 254 226 271 236 252 245 181 281 298 339 164 145 167 163 152 161 173 164 158 159
316 317 311 307 310 300 301 306 296 282 268 270 270 273 280 253 246 219 278 242 203 218 272 247 283 294 339 269 142 171 173 188 191 210 216 195 236 229 247 251 223 223 239 206 185 170 148 162 157 163 164 168 169 172
312 314 308 306 302 299 297 298 313 274 234 237 265 231 249 235 270 298 347 201 197 218 226 251 244 266 306 303 162 217 189 192 205 214 164 233 249 232 249 251 249 212 222 242 208 159 174 171 172 170 173 180 182 183
303 306 307 301 288 287 281 289 299 203 174 182 217 253 281 298 287 200 239 189 186 229 219 242 233 253 250 240 261 228 223 178 243 147 230 223 257 238 249 255 245 232 228 252 256 205 207 197 185 176 183 186 183 180
313 313 313 297 271 262 263 261 209 187 168 208 277 290 300 293 270 252 229 184 217 252 190 248 263 226 258 232 251 200 258 167 249 147 235 248 274 350 331 310 244 222 224 234 223 200 216 216 208 194 189 185 185 181
320 321 319 290 253 235 247 239 193 200 206 262 285 281 241 250 249 228 219 214 215 152 92 291 277 233 241 229 246 254 240 240 140 222 241 268 358 345 339 342 238 212 219 236 230 215 221 221 221 216 206 195 187 188
316 321 353 300 242 221 225 187 191 190 198 226 228 288 230 213 238 213 255 320 283 195 271 285 278 239 208 218 224 240 175 253 249 236 225 328 338 334 350 348 310 189 219 229 223 211 217 218 221 224 220 210 202 198
313 313 289 260 243 239 224 182 193 197 266 252 231 236 229 245 272 280 290 285 310 311 284 292 257 252 250 270 221 318 228 247 261 354 310 315 327 335 350 355 223 223 233 224 223 219 215 221 228 217 216 215 214 212
324 334 299 238 229 195 177 173 183 194 265 234 237 268 268 284 286 286 285 287 300 282 275 197 255 227 243 270 246 218 238 14 337 273 310 333 329 344 8 19 33 225 234 238 230 224 216 213 234 220 211 212 217 225
345 21 315 215 173 164 162 173 173 223 254 245 241 245 262 278 272 275 281 294 312 308 300 259 213 235 142 229 244 217 354 142 279 297 291 314 329 6 354 1 39 45 32 242 230 223 220 214 215 214 205 208 213 229
228 11 238 177 172 179 188 194 234 242 247 251 260 268 250 256 269 274 279 291 271 280 278 310 314 247 252 265 40 31 303 314 328 320 341 347 339 339 353 350 27 20 25 30 37 205 217 222 222 220 220 219 223 228
235 275 264 193 180 200 189 226 228 268 251 269 265 273 271 273 277 280 270 266 262 267 279 272 251 238 243 228 269 295 300 342 335 332 333 350 338 338 334 314 49 84 270 328 339 308 87 196 220 224 225 227 228 233
257 240 223 268 224 291 222 228 217 259 268 274 272 271 264 261 278 286 288 265 225 189 205 217 232 219 226 230 311 320 291 320 322 327 326 353 356 355 347 328 306 300 266 236 276 288 277 251 234 233 234 232 235 241
240 245 204 231 199 256 270 276 244 241 276 263 285 286 269 274 264 258 260 233 199 216 230 234 246 260 272 277 292 296 298 303 306 306 306 313 336 342 3 12 2 328 306 336 350 346 301 268 260 256 229 241 249 255
229 186 218 182 202 258 265 247 257 285 270 268 286 246 265 273 261 235 216 196 229 236 235 253 264 274 281 278 282 285 281 285 290 295 288 292 313 339 342 346 344 321 297 284 292 313 332 308 265 262 249 247 254 261
268 178 175 181 235 244 259 254 252 246 257 259 265 255 236 248 248 266 243 230 251 262 262 269 279 277 271 276 279 279 281 282 281 287 299 292 280 280 340 6 11 4 360 309 269 299 313 329 290 256 235 217 202 198
78 202 191 196 211 265 258 243 233 254 254 252 238 264 226 277 302 252 259 245 251 278 291 292 294 301 284 289 291 297 309 7 35 47 48 75 107 69 88 41 18 7 3 4 358 326 313 307 324 186 148 117 112 102
190 222 241 259 222 234 238 242 222 232 260 233 253 285 329 337 265 245 224 246 318 327 337 340 318 310 327 41 30 88 79 55 71 104 88 71 56 55 79 41 28 22 32 62 59 50 46 41 37 54 133 103 98 97
241 209 194 220 216 216 259 264 201 185 254 253 248 241 214 236 237 268 298 319 19 77 34 34 32 39 81 111 106 98 85 85 93 92 83 74 68 69 68 61 49 46 58 56 52 59 67 77 84 84 84 88 83 72
255 247 228 234 254 283 273 261 254 265 259 251 239 281 217 238 251 257 268 72 94 98 20 60 59 84 113 140 101 107 103 101 99 91 83 74 67 61 57 55 52 52 54 55 63 64 66 65 65 69 65 57 43 34
243 263 228 224 222 233 258 269 254 252 275 314 283 238 170 216 221 190 138 128 120 99 82 74 67 76 90 106 115 112 107 100 89 83 80 74 68 65 67 63 63 60 59 64 63 59 61 68 72 72 71 67 59 49
235 236 232 260 247 234 226 226 224 237 231 233 275 193 197 285 4 105 135 132 114 108 88 71 62 78 106 113 105 97 81 79 83 77 59 46 39 32 32 102 109 94 77 77 72 77 86 84 81 81 75 68 59 49
249 211 227 260 257 255 245 232 257 267 283 261 255 305 66 84 120 118 125 109 109 87 78 80 86 100 100 101 98 91 83 76 69 63 55 44 34 28 31 41 70 15 18 6 325 309 173 96 47 37 11 346 346 359
258 228 236 222 263 257 261 259 283 294 344 18 67 97 96 87 84 129 124 118 104 101 106 109 99 94 94 90 88 86 80 70 61 49 41 37 33 30 32 36 40 39 35 31 21 6 357 337 327 323 321 319 317 312
233 208 204 249 262 270 123 126 115 357 39 57 62 99 91 83 55 100 145 137 128 112 104 100 98 98 93 85 75 73 70 70 57 43 32 24 21 16 8 5 7 9 9 10 24 29 21 27 40 43 40 35 25 15
214 239 243 274 266 110 33 25 57 87 89 59 57 85 71 99 117 114 139 145 145 121 118 114 111 106 102 92 85 80 74 68 53 39 28 25 22 23 33 42 44 42 38 44 49 44 41 35 33 28 22 11 0 358
Wind_Speed_850mb
35 35 35 32 29 28 28 24 25 25 23 23 19 17 15 13 8 15 12 12 16 18 39 44 39 37 29 20 8 10 14 2 4 5 6 4 8 16 11 10 8 13 14 8 7 5 13 30 23 18 9 11 9 18
31 30 31 30 26 25 26 23 24 26 25 21 21 18 13 12 9 13 18 11 19 23 27 29 44 55 42 32 14 9 9 6 7 5 4 6 6 7 17 9 5 9 7 13 13 13 4 57 7 18 19 18 15 22
30 30 29 28 23 25 26 21 25 25 25 21 19 19 15 12 11 17 21 18 22 28 39 24 17 17 14 33 49 30 19 16 8 3 5 5 10 6 8 10 5 4 3 4 9 13 14 44 12 28 21 20 21 20
29 28 27 26 22 24 26 25 24 24 26 26 19 18 17 16 13 19 23 19 20 13 10 13 16 46 38 35 36 54 38 11 1 9 7 4 7 3 3 4 3 4 8 10 4 2 9 27 18 22 24 23 24 20
26 26 25 22 22 23 26 25 25 24 27 29 18 19 18 16 15 20 26 24 22 16 9 32 48 8 14 16 39 36 48 41 16 7 5 5 9 7 5 3 7 9 5 7 8 24 9 22 46 29 26 27 21 16
27 28 27 22 19 24 25 25 26 28 29 17 16 18 15 12 11 13 8 2 16 33 11 8 18 11 19 8 28 36 35 27 14 9 9 9 11 7 7 4 7 9 14 21 11 19 14 22 42 31 29 27 19 21
24 24 26 25 24 24 24 28 24 24 22 15 16 16 10 13 14 17 8 11 9 9 8 11 11 8 6 12 12 17 25 17 17 7 9 7 19 17 7 9 8 14 18 11 4 25 19 28 26 35 28 24 28 26
22 24 24 23 20 21 24 22 21 22 17 14 9 8 9 13 18 23 13 26 21 13 8 6 8 10 4 7 9 16 17 18 17 8 6 6 12 10 9 20 17 32 22 5 23 7 9 25 42 34 29 39 32 30
21 22 24 24 21 22 22 21 25 19 9 7 7 8 10 11 9 3 5 11 13 13 6 6 6 5 14 1 7 12 15 7 13 7 8 8 5 10 16 11 10 38 23 10 29 7 25 34 38 39 41 34 30 31
19 21 24 25 24 22 16 14 12 6 6 5 3 6 6 5 8 7 1 5 14 10 11 8 6 7 9 4 3 3 9 6 7 9 9 7 7 41 56 47 31 21 15 8 8 16 24 33 43 45 39 34 31 31
20 25 28 26 21 16 12 10 9 7 6 4 4 6 8 15 9 8 5 8 9 7 11 10 14 9 6 6 2 8 3 6 4 5 6 5 7 9 21 49 55 43 30 14 13 18 22 34 45 42 41 37 32 29
22 26 25 20 15 12 11 7 7 12 6 6 9 14 10 3 2 3 5 7 8 4 6 5 8 13 8 8 6 6 3 3 5 14 5 5 4 23 36 29 30 45 37 25 17 30 28 40 45 48 44 40 35 31
19 23 21 11 8 10 7 7 13 14 7 7 4 4 4 3 3 7 6 5 4 3 4 14 7 7 6 9 8 4 5 3 1 4 5 5 20 36 30 24 12 39 39 28 26 25 26 36 39 47 48 44 39 37
18 14 12 3 6 5 6 8 14 14 5 4 3 6 6 7 8 5 2 4 3 8 9 17 13 6 6 6 3 6 1 4 5 5 3 8 30 41 22 20 2 22 20 24 29 31 30 29 43 51 54 46 44 42
14 14 9 6 7 10 5 11 11 10 4 3 5 7 10 12 11 12 18 13 11 27 14 13 11 7 4 5 3 2 5 5 5 2 5 33 37 34 18 20 9 24 17 18 25 31 29 29 32 52 57 50 45 44
13 9 2 5 6 6 11 13 11 7 6 5 8 8 11 9 14 9 6 11 22 29 17 8 3 3 3 4 5 8 3 3 8 4 14 31 45 30 21 28 23 10 22 22 22 23 30 31 22 36 50 52 45 42
8 2 6 3 6 10 15 10 6 6 7 6 10 17 24 26 25 23 11 15 18 12 3 3 6 2 4 5 5 3 3 1 10 15 21 28 26 24 27 20 25 34 6 7 17 26 33 38 33 26 34 48 47 39
2 13 1 9 11 15 15 9 6 7 11 14 11 12 12 21 23 25 22 14 4 3 5 3 6 4 4 4 1 3 4 13 13 11 19 16 13 10 22 17 17 18 29 22 12 9 25 37 47 47 39 43 43 41
5 3 2 9 10 4 7 6 8 7 14 15 22 27 25 26 34 35 31 25 21 17 12 6 5 5 5 6 6 9 7 15 25 29 26 23 15 15 12 9 5 4 7 14 9 3 3 4 13 26 37 45 46 43
6 8 7 3 13 4 4 6 8 8 9 8 16 16 15 18 23 22 18 12 11 8 8 7 7 7 9 13 12 23 17 28 30 26 22 18 13 15 16 14 13 10 4 8 12 15 15 17 16 16 23 27 28 30
10 7 9 11 20 10 6 5 9 10 11 11 19 16 13 16 14 12 12 13 15 10 10 21 25 29 26 29 33 36 35 33 31 29 30 25 19 15 13 15 14 10 7 5 7 8 9 17 19 20 19 18 21 25
5 8 5 14 8 6 9 10 10 13 10 13 14 11 13 8 6 5 5 10 10 17 25 28 35 36 36 35 31 28 30 31 30 26 18 16 14 11 12 18 18 13 12 14 15 13 16 14 15 16 17 17 17 19
13 15 5 9 6 6 7 9 7 7 6 6 6 6 6 6 4 4 7 9 11 17 20 23 24 25 27 24 24 25 22 19 18 15 13 16 15 6 7 14 18 17 11 7 10 13 14 13 8 6 5 6 4 2
3 6 9 9 11 6 6 7 9 8 7 7 5 6 4 4 5 7 5 6 11 12 15 16 16 13 11 12 13 15 8 3 4 6 8 12 11 3 2 9 19 15 12 8 5 7 11 8 4 3 7 6 7 5
4 5 5 6 8 7 7 6 8 6 6 6 5 5 3 6 3 6 5 4 4 9 9 8 7 7 4 4 7 15 16 12 11 14 17 15 12 9 9 7 17 19 14 14 16 18 12 7 6 1 5 7 8 10
4 9 13 7 7 7 6 5 4 4 6 6 6 6 6 5 6 6 4 2 3 6 10 9 14 6 8 12 19 23 26 31 34 40 35 32 33 32 29 25 22 22 20 16 15 17 19 19 19 18 18 17 16 14
5 7 11 13 8 7 10 15 14 8 6 6 2 4 5 5 5 5 4 3 7 4 10 10 14 13 12 18 19 32 33 35 34 33 32 32 35 35 33 33 33 29 24 24 22 21 18 16 17 19 20 18 19 19
11 7 9 5 10 14 7 7 5 4 4 9 7 6 2 6 6 4 6 17 16 20 21 21 22 22 29 31 31 32 29 30 31 28 25 25 25 23 26 30 32 33 34 33 32 30 26 23 23 25 26 27 27 25
10 10 9 17 14 12 11 9 7 7 12 8 7 1 3 5 10 16 24 19 26 24 25 34 32 24 28 31 32 26 21 23 29 34 33 32 33 31 19 7 13 13 16 15 18 23 25 24 22 20 19 18 19 19
9 15 7 7 5 6 7 13 20 26 23 16 10 6 6 13 22 37 44 32 25 22 30 36 39 46 50 53 50 46 43 43 41 37 35 35 33 32 30 17 2 3 2 2 2 1 1 1 2 3 3 6 8 11
8 5 9 10 9 23 30 24 18 13 6 9 15 21 24 28 35 33 35 36 37 32 28 33 38 40 42 44 42 43 43 38 36 37 37 34 29 26 27 26 26 24 22 18 13 11 11 10 9 8 9 9 10 11
6 10 6 5 9 3 14 19 6 8 16 26 23 28 29 35 20 15 27 31 27 31 37 37 36 38 37 36 36 33 28 26 25 29 33 35 32 27 21 18 18 19 19 18 16 17 16 16 16 17 17 17 16 18
14 16 15 9 7 2 2 4 5 7 13 15 13 19 20 15 6 8 21 24 21 20 21 23 23 22 21 20 21 21 19 20 24 28 34 38 36 28 22 20 21 21 20 19 20 20 21 20 19 18 18 18 19 21
Wind_Direction_850mb
300 303 307 312 307 317 319 324 325 324 319 317 307 298 292 258 279 289 279 250 250 261 273 266 259 260 263 256 245 317 310 82 273 249 250 246 250 205 198 150 241 172 164 160 113 153 232 159 139 195 184 151 160 170
298 301 307 311 306 310 316 310 311 314 316 314 317 311 294 248 259 275 281 267 273 272 260 261 267 264 248 240 222 245 284 322 287 290 281 289 276 248 211 215 122 255 217 167 195 204 73 177 157 171 160 148 155 174
295 302 309 309 299 310 314 308 307 311 317 313 317 318 290 237 247 270 277 285 286 286 294 277 284 296 217 235 243 236 252 224 220 77 290 286 266 281 193 223 281 206 38 160 156 189 203 187 146 174 154 155 164 178
297 303 308 307 296 301 307 307 303 305 308 306 300 313 301 230 251 267 275 273 272 281 281 296 312 301 282 256 233 219 222 229 189 352 299 275 280 292 237 32 308 270 161 183 222 139 133 199 185 166 163 162 160 164
300 303 304 306 316 304 299 295 300 300 301 311 304 313 299 232 253 280 279 270 247 241 288 295 310 5 346 228 215 218 221 236 268 316 262 253 285 300 253 253 225 196 204 205 197 190 161 190 190 173 161 161 167 177
299 298 299 300 300 302 312 302 289 291 305 301 299 300 285 230 273 290 300 242 230 233 269 300 308 318 338 290 200 206 205 210 214 222 245 263 266 263 264 194 285 320 311 263 287 141 130 147 173 175 172 173 177 167
307 315 313 301 287 294 307 299 292 287 294 291 296 296 248 252 254 244 233 166 55 340 255 289 289 292 337 67 117 162 189 203 197 221 243 233 286 309 266 215 202 320 330 284 185 130 109 153 156 163 176 169 158 156
321 318 319 318 301 301 306 303 298 286 283 293 293 280 266 268 273 277 274 254 265 265 260 281 277 301 342 204 143 162 170 189 194 214 254 226 271 236 252 245 181 281 298 339 164 145 167 163 152 161 173 164 158 159
316 317 311 307 310 300 301 306 296 282 268 270 270 273 280 253 246 219 278 242 203 218 272 247 283 294 339 269 142 171 173 188 191 210 216 195 236 229 247 251 223 223 239 206 185 170 148 162 157 163 164 168 169 172
312 314 308 306 302 299 297 298 313 274 234 237 265 231 249 235 270 298 347 201 197 218 226 251 244 266 306 303 162 217 189 192 205 214 164 233 249 232 249 251 249 212 222 242 208 159 174 171 172 170 173 180 182 183
303 306 307 301 288 287 281 289 299 203 174 182 217 253 281 298 287 200 239 189 186 229 219 242 233 253 250 240 261 228 223 178 243 147 230 223 257 238 249 255 245 232 228 252 256 205 207 197 185 176 183 186 183 180
313 313 313 297 271 262 263 261 209 187 168 208 277 290 300 293 270 252 229 184 217 252 190 248 263 226 258 232 251 200 258 167 249 147 235 248 274 350 331 310 244 222 224 234 223 200 216 216 208 194 189 185 185 181
320 321 319 290 253 235 247 239 193 200 206 262 285 281 241 250 249 228 219 214 215 152 92 291 277 233 241 229 246 254 240 240 140 222 241 268 358 345 339 342 238 212 219 236 230 215 221 221 221 216 206 195 187 188
316 321 353 300 242 221 225 187 191 190 198 226 228 288 230 213 238 213 255 320 283 195 271 285 278 239 208 218 224 240 175 253 249 236 225 328 338 334 350 348 310 189 219 229 223 211 217 218 221 224 220 210 202 198
313 313 289 260 243 239 224 182 193 197 266 252 231 236 229 245 272 280 290 285 310 311 284 292 257 252 250 270 221 318 228 247 261 354 310 315 327 335 350 355 223 223 233 224 223 219 215 221 228 217 216 215 214 212
324 334 299 238 229 195 177 173 183 194 265 234 237 268 268 284 286 286 285 287 300 282 275 197 255 227 243 270 246 218 238 14 337 273 310 333 329 344 8 19 33 225 234 238 230 224 216 213 234 220 211 212 217 225
345 21 315 215 173 164 162 173 173 223 254 245 241 245 262 278 272 275 281 294 312 308 300 259 213 235 142 229 244 217 354 142 279 297 291 314 329 6 354 1 39 45 32 242 230 223 220 214 215 214 205 208 213 229
228 11 238 177 172 179 188 194 234 242 247 251 260 268 250 256 269 274 279 291 271 280 278 310 314 247 252 265 40 31 303 314 328 320 341 347 339 339 353 350 27 20 25 30 37 205 217 222 222 220 220 219 223 228
235 275 264 193 180 200 189 226 228 268 251 269 265 273 271 273 277 280 270 266 262 267 279 272 251 238 243 228 269 295 300 342 335 332 333 350 338 338 334 314 49 84 270 328 339 308 87 196 220 224 225 227 228 233
257 240 223 268 224 291 222 228 217 259 268 274 272 271 264 261 278 286 288 265 225 189 205 217 232 219 226 230 311 320 291 320 322 327 326 353 356 355 347 328 306 300 266 236 276 288 277 251 234 233 234 232 235 241
240 245 204 231 199 256 270 276 244 241 276 263 285 286 269 274 264 258 260 233 199 216 230 234 246 260 272 277 292 296 298 303 306 306 306 313 336 342 3 12 2 328 306 336 350 346 301 268 260 256 229 241 249 255
229 186 218 182 202 258 265 247 257 285 270 268 286 246 265 273 261 235 216 196 229 236 235 253 264 274 281 278 282 285 281 285 290 295 288 292 313 339 342 346 344 321 297 284 292 313 332 308 265 262 249 247 254 261
268 178 175 181 235 244 259 254 252 246 257 259 265 255 236 248 248 266 243 230 251 262 262 269 279 277 271 276 279 279 281 282 281 287 299 292 280 280 340 6 11 4 360 309 269 299 313 329 290 256 235 217 202 198
78 202 191 196 211 265 258 243 233 254 254 252 238 264 226 277 302 252 259 245 251 278 291 292 294 301 284 289 291 297 309 7 35 47 48 75 107 69 88 41 18 7 3 4 358 326 313 307 324 186 148 117 112 102
190 222 241 259 222 234 238 242 222 232 260 233 253 285 329 337 265 245 224 246 318 327 337 340 318 310 327 41 30 88 79 55 71 104 88 71 56 55 79 41 28 22 32 62 59 50 46 41 37 54 133 103 98 97
241 209 194 220 216 216 259 264 201 185 254 253 248 241 214 236 237 268 298 319 19 77 34 34 32 39 81 111 106 98 85 85 93 92 83 74 68 69 68 61 49 46 58 56 52 59 67 77 84 84 84 88 83 72
255 247 228 234 254 283 273 261 254 265 259 251 239 281 217 238 251 257 268 72 94 98 20 60 59 84 113 140 101 107 103 101 99 91 83 74 67 61 57 55 52 52 54 55 63 64 66 65 65 69 65 57 43 34
243 263 228 224 222 233 258 269 254 252 275 314 283 238 170 216 221 190 138 128 120 99 82 74 67 76 90 106 115 112 107 100 89 83 80 74 68 65 67 63 63 60 59 64 63 59 61 68 72 72 71 67 59 49
235 236 232 260 247 234 226 226 224 237 231 233 275 193 197 285 4 105 135 132 114 108 88 71 62 78 106 113 105 97 81 79 83 77 59 46 39 32 32 102 109 94 77 77 72 77 86 84 81 81 75 68 59 49
249 211 227 260 257 255 245 232 257 267 283 261 255 305 66 84 120 118 125 109 109 87 78 80 86 100 100 101 98 91 83 76 69 63 55 44 34 28 31 41 70 15 18 6 325 309 173 96 47 37 11 346 346 359
258 228 236 222 263 257 261 259 283 294 344 18 67 97 96 87 84 129 124 118 104 101 106 109 99 94 94 90 88 86 80 70 61 49 41 37 33 30 32 36 40 39 35 31 21 6 357 337 327 323 321 319 317 312
233 208 204 249 262 270 123 126 115 357 39 57 62 99 91 83 55 100 145 137 128 112 104 100 98 98 93 85 75 73 70 70 57 43 32 24 21 16 8 5 7 9 9 10 24 29 21 27 40 43 40 35 25 15
214 239 243 274 266 110 33 25 57 87 89 59 57 85 71 99 117 114 139 145 145 121 118 114 111 106 102 92 85 80 74 68 53 39 28 25 22 23 33 42 44 42 38 44 49 44 41 35 33 28 22 11 0 358